Change the Weather History Date:

Wednesday, January 2, 2013

  Actual Average (KTAD) Record (KTAD)
Temperature  
Mean Temperature 12 °F 32 °F  
Max Temperature 25 °F 46 °F 73 °F (1997)
Min Temperature 0 °F 17 °F -12 °F (1974)
Degree Days  
Heating Degree Days 52 33  
Month to date heating degree days 66  
Since 1 July heating degree days 2334  
Cooling Degree Days 0 0  
Month to date cooling degree days 0  
Year to date cooling degree days 0  
Moisture  
Dew Point 1 °F    
Average Humidity 79    
Maximum Humidity 100    
Minimum Humidity 46    
Precipitation  
Precipitation 0.00 in 0.02 in 0.60 in (1966)
Month to date precipitation 0.03  
Year to date precipitation 0.03  
Sea Level Pressure  
Sea Level Pressure 30.27 in    
Wind  
Wind Speed 7 mph (NE)    
Max Wind Speed 10 mph    
Max Gust Speed -    
Visibility 7 miles    
Events Fog    
T = Trace of Precipitation, MM = Missing Value Source: NWS Daily Summary

Daily Weather History Graph

Daily Weather History Graph

Search for Another Location

Airport or City:

Trip Planner

Search our weather history database for the weather conditions in past years. The results will help you decide how hot, cold, wet, or windy it might be!

Date:

Astronomy

Jan. 02, 2013 Rise Set
Actual Time 7:10 AM MST 4:53 PM MST
Civil Twilight 6:42 AM MST 5:22 PM MST
Nautical Twilight 6:09 AM MST 5:54 PM MST
Astronomical Twilight 5:38 AM MST 6:26 PM MST
Moon 10:19 PM MST (1/2) 10:02 AM MST (1/2)
Length of Visible Light 10h 40m
Length of Day
9h 43m
Waning Gibbous, 74% of the Moon is Illuminated
Jan 2
Waning Gibbous
Jan 4
Last Quarter
Jan 11
New
Jan 18
First Quarter
Jan 26
Full

Hourly Weather History & Observations

Time (MST) Temp. Windchill Dew Point Humidity Pressure Visibility Wind Dir Wind Speed Gust Speed Precip Events Conditions
12:38 AM 12.2 °F 2.9 °F 10.4 °F 92% 30.11 in 1.8 mi NE 5.8 mph - N/A   Overcast
12:46 AM 12.2 °F 4.3 °F 10.4 °F 92% 30.10 in 0.2 mi NE 4.6 mph - N/A Fog Light Freezing Fog
12:53 AM 10.9 °F 4.7 °F 10.0 °F 96% 30.28 in 0.2 mi ENE 3.5 mph - N/A Fog Light Freezing Fog
1:25 AM 3.2 °F -10.3 °F -0.4 °F 85% 30.10 in 1.0 mi East 8.1 mph - N/A   Mist
1:29 AM 1.4 °F -9.9 °F -0.4 °F 92% 30.10 in 4.0 mi East 5.8 mph - N/A   Overcast
1:46 AM -0.4 °F -13.4 °F -4.0 °F 85% 30.10 in 10.0 mi NE 6.9 mph - N/A   Scattered Clouds
1:53 AM 1.0 °F -12.9 °F -2.9 °F 83% 30.33 in 10.0 mi ENE 8.1 mph - N/A   Partly Cloudy
2:16 AM 1.4 °F -13.5 °F -2.2 °F 85% 30.10 in 1.0 mi NNE 9.2 mph - N/A   Mist
2:20 AM -0.4 °F -15.7 °F -0.4 °F 100% 30.09 in 0.2 mi NNE 9.2 mph - N/A Fog Light Freezing Fog
2:40 AM 1.4 °F -11.3 °F -2.2 °F 85% 30.09 in 1.0 mi ENE 6.9 mph - N/A   Mist
2:45 AM -0.4 °F -10.4 °F -2.2 °F 92% 30.10 in 2.0 mi East 4.6 mph - N/A   Scattered Clouds
2:53 AM -0.0 °F -15.3 °F -4.0 °F 83% 30.32 in 9.0 mi ENE 9.2 mph - N/A   Scattered Clouds
2:59 AM -0.4 °F -14.7 °F -2.2 °F 92% 30.09 in 1.5 mi ENE 8.1 mph - N/A   Mostly Cloudy
3:16 AM -0.4 °F -15.7 °F -4.0 °F 85% 30.09 in 3.0 mi ENE 9.2 mph - N/A   Mostly Cloudy
3:28 AM -0.4 °F -15.7 °F -4.0 °F 85% 30.08 in 10.0 mi ENE 9.2 mph - N/A   Scattered Clouds
3:53 AM -0.9 °F -15.3 °F -4.0 °F 87% 30.32 in 10.0 mi NE 8.1 mph - N/A   Clear
4:53 AM -0.9 °F -15.3 °F -6.0 °F 79% 30.32 in 10.0 mi NE 8.1 mph - N/A   Clear
5:53 AM 1.9 °F -7.6 °F -2.0 °F 83% 30.32 in 10.0 mi ENE 4.6 mph - N/A   Clear
6:53 AM 1.9 °F -10.6 °F -2.9 °F 80% 30.36 in 10.0 mi North 6.9 mph - N/A   Clear
7:53 AM 1.9 °F -7.6 °F -2.9 °F 80% 30.38 in 10.0 mi NE 4.6 mph - N/A   Clear
8:53 AM 7.0 °F 0.1 °F 3.0 °F 84% 30.37 in 10.0 mi Variable 3.5 mph - N/A   Clear
9:53 AM 10.9 °F 0.2 °F 3.9 °F 73% 30.37 in 10.0 mi NE 6.9 mph - N/A   Clear
10:53 AM 18.0 °F 8.7 °F 7.0 °F 62% 30.32 in 10.0 mi NE 6.9 mph - N/A   Clear
11:53 AM 21.0 °F - 8.1 °F 57% 30.28 in 10.0 mi Calm Calm - N/A   Clear
12:53 PM 24.1 °F 15.2 °F 8.1 °F 51% 30.23 in 10.0 mi WSW 8.1 mph - N/A   Clear
1:53 PM 25.0 °F 20.7 °F 7.0 °F 46% 30.28 in 10.0 mi SW 3.5 mph - N/A   Clear
2:53 PM 21.9 °F 12.5 °F 8.1 °F 55% 30.31 in 10.0 mi SW 8.1 mph - N/A   Clear
3:53 PM 19.0 °F 10.0 °F 9.0 °F 65% 30.36 in 10.0 mi SW 6.9 mph - N/A   Clear
4:53 PM 15.1 °F 3.3 °F 7.0 °F 70% 30.39 in 10.0 mi West 9.2 mph - N/A   Clear
5:53 PM 16.0 °F 6.3 °F 5.0 °F 62% 30.40 in 10.0 mi West 6.9 mph - N/A   Clear
6:53 PM 14.0 °F 3.9 °F 3.9 °F 64% 30.43 in 10.0 mi West 6.9 mph - N/A   Clear
7:53 PM 8.1 °F -6.2 °F 3.0 °F 80% 30.48 in 10.0 mi NNE 10.4 mph - N/A   Clear
8:53 PM 6.1 °F -4.3 °F 1.0 °F 80% 30.47 in 10.0 mi NNE 5.8 mph - N/A   Clear
9:53 PM 3.9 °F -9.4 °F -0.9 °F 80% 30.48 in 10.0 mi ENE 8.1 mph - N/A   Clear
10:53 PM 1.9 °F -10.6 °F -2.0 °F 83% 30.47 in 10.0 mi NE 6.9 mph - N/A   Clear
11:53 PM 1.0 °F -14.0 °F -4.0 °F 79% 30.46 in 10.0 mi NE 9.2 mph - N/A   Clear